This is the latest recevied weather packets stored in our database for station/object M0ADS. If no packets are shown the sender has not sent any weather packets the latest 10 day(s).
| Time | Temp. | Humidity | Pressure | Rain* | Wind** | Luminosity | Snow |
|---|---|---|---|---|---|---|---|
| 1777762238 | 11.67° C | 87% | 1010 hPa | 0 mm | - | - | - |
| 1777761336 | 11.67° C | 87% | 1010.1 hPa | 0 mm | - | - | - |
| 1777760436 | 11.67° C | 86% | 1010.4 hPa | 0.25 mm | - | - | - |
| 1777759536 | 12.22° C | 85% | 1010.7 hPa | 0.51 mm | - | - | - |
| 1777758636 | 12.22° C | 84% | 1010.8 hPa | 0.76 mm | - | - | - |
| 1777757734 | 12.78° C | 83% | 1010.8 hPa | 0.76 mm | - | - | - |
| 1777756834 | 13.33° C | 82% | 1011 hPa | 0.51 mm | - | - | - |
| 1777755934 | 13.33° C | 80% | 1011.2 hPa | 0.25 mm | - | - | - |
| 1777755032 | 13.89° C | 77% | 1011.4 hPa | 0 mm | - | - | - |
| 1777754130 | 14.44° C | 72% | 1011.4 hPa | 0 mm | - | - | - |
| 1777753228 | 14.44° C | 68% | 1011.4 hPa | 0 mm | - | - | - |
| 1777752326 | 15° C | 64% | 1011.3 hPa | 0 mm | - | - | - |
| 1777751426 | 15° C | 62% | 1011.3 hPa | 0 mm | - | - | - |
| 1777750526 | 15° C | 62% | 1011.3 hPa | 0 mm | - | - | - |
| 1777749626 | 15.56° C | 61% | 1011.3 hPa | 0 mm | - | - | - |
| 1777748726 | 15.56° C | 59% | 1011.4 hPa | 0 mm | - | - | - |
| 1777747826 | 15.56° C | 58% | 1011.3 hPa | 0 mm | - | - | - |
| 1777746926 | 16.11° C | 58% | 1011.3 hPa | 0 mm | - | - | - |
| 1777746026 | 16.11° C | 56% | 1011.4 hPa | 0 mm | - | - | - |
| 1777745125 | 16.67° C | 55% | 1011.4 hPa | 0 mm | - | - | - |
| 1777744223 | 16.67° C | 57% | 1011.5 hPa | 0 mm | - | - | - |
| 1777743324 | 16.67° C | 56% | 1011.5 hPa | 0 mm | - | - | - |
| 1777742423 | 16.67° C | 57% | 1011.8 hPa | 0 mm | - | - | - |
| 1777741521 | 16.67° C | 56% | 1012 hPa | 0 mm | - | - | - |
| 1777740621 | 17.22° C | 55% | 1012.1 hPa | 0 mm | - | - | - |
* Rain latest hour (hover to see other rain measurements)
** Current wind speed in m/s (hover to see current wind gust speed)